Hourly Weather Rudnya (Pleschenicy)

Today, 20 April, Tuesday

Time Temperature Precipitation Wind Pressure Humidity
00:00 +6°C° 0 mm 2 mps 746 mmHg 87%
01:00 +6°C° 0 mm 2 mps 746 mmHg 88%
02:00 +6°C° 0 mm 2 mps 746 mmHg 90%
03:00 +6°C° 0 mm 2 mps 746 mmHg 90%
04:00 +6°C° 0 mm 2 mps 745 mmHg 90%
05:00 +6°C° 0 mm 2 mps 745 mmHg 90%
06:00 +6°C° 0.1 mm 2 mps 745 mmHg 88%
07:00 +7°C° 0.1 mm 3 mps 745 mmHg 87%
08:00 +7°C° 0.1 mm 3 mps 745 mmHg 86%
09:00 +5°C° 0.2 mm 3 mps 744 mmHg 86%
10:00 +5°C° 0.2 mm 3 mps 744 mmHg 86%
11:00 +5°C° 0.2 mm 3 mps 744 mmHg 87%
12:00 +7°C° 0.1 mm 3 mps 744 mmHg 81%
13:00 +8°C° 0.1 mm 3 mps 743 mmHg 75%
14:00 +9°C° 0.1 mm 3 mps 743 mmHg 70%
15:00 +8°C° 0.1 mm 3 mps 743 mmHg 71%
16:00 +8°C° 0.1 mm 3 mps 742 mmHg 72%
17:00 +8°C° 0.1 mm 3 mps 742 mmHg 73%
18:00 +7°C° 0 mm 3 mps 742 mmHg 77%
19:00 +6°C° 0 mm 2 mps 742 mmHg 82%
20:00 +5°C° 0 mm 2 mps 742 mmHg 86%
21:00 +5°C° 0 mm 2 mps 742 mmHg 87%
22:00 +6°C° 0 mm 1 mps 741 mmHg 88%
23:00 +5°C° 0 mm 1 mps 741 mmHg 89%

Tomorrow, 21 April, Wednesday

Time Temperature Precipitation Wind Pressure Humidity
00:00 +5°C° 0 mm 1 mps 741 mmHg 89%
01:00 +5°C° 0 mm 1 mps 741 mmHg 89%
02:00 +5°C° 0 mm 1 mps 740 mmHg 88%
03:00 +5°C° 0 mm 1 mps 740 mmHg 88%
04:00 +5°C° 0 mm 1 mps 740 mmHg 88%
05:00 +5°C° 0 mm 1 mps 739 mmHg 87%
06:00 +6°C° 0 mm 1 mps 739 mmHg 83%
07:00 +6°C° 0 mm 1 mps 739 mmHg 79%
08:00 +7°C° 0 mm 1 mps 739 mmHg 76%
09:00 +7°C° 0.1 mm 2 mps 739 mmHg 68%
10:00 +9°C° 0.1 mm 2 mps 739 mmHg 61%
11:00 +10°C° 0.1 mm 2 mps 738 mmHg 53%
12:00 +12°C° 0 mm 2 mps 738 mmHg 51%
13:00 +12°C° 0 mm 2 mps 738 mmHg 49%
14:00 +12°C° 0 mm 2 mps 738 mmHg 47%
15:00 +13°C° 0 mm 2 mps 737 mmHg 49%
16:00 +12°C° 0 mm 3 mps 737 mmHg 50%
17:00 +12°C° 0 mm 3 mps 737 mmHg 52%
18:00 +12°C° 0.2 mm 2 mps 737 mmHg 62%
19:00 +9°C° 0.2 mm 2 mps 738 mmHg 73%
20:00 +8°C° 0.2 mm 2 mps 738 mmHg 83%
21:00 +7°C° 0.1 mm 2 mps 738 mmHg 84%
22:00 +7°C° 0.1 mm 2 mps 738 mmHg 86%
23:00 +6°C° 0.1 mm 2 mps 738 mmHg 88%

Day after tomorrow, 22 April, Thursday

Time Temperature Precipitation Wind Pressure Humidity
00:00 +6°C° 0 mm 2 mps 738 mmHg 88%
01:00 +5°C° 0 mm 2 mps 738 mmHg 88%
02:00 +5°C° 0 mm 2 mps 738 mmHg 88%
03:00 +5°C° 0 mm 2 mps 738 mmHg 88%
04:00 +5°C° 0 mm 2 mps 738 mmHg 89%
05:00 +5°C° 0 mm 2 mps 738 mmHg 89%
06:00 +7°C° 0 mm 2 mps 739 mmHg 84%
07:00 +8°C° 0 mm 3 mps 739 mmHg 78%
08:00 +10°C° 0 mm 3 mps 739 mmHg 73%
09:00 +11°C° 0.4 mm 4 mps 739 mmHg 70%
10:00 +12°C° 0.4 mm 5 mps 739 mmHg 66%
11:00 +13°C° 0.4 mm 5 mps 739 mmHg 62%
12:00 +13°C° 0.4 mm 5 mps 739 mmHg 61%
13:00 +13°C° 0.4 mm 5 mps 739 mmHg 60%
14:00 +13°C° 0.4 mm 5 mps 740 mmHg 59%
15:00 +12°C° 0.1 mm 5 mps 740 mmHg 62%
16:00 +12°C° 0.1 mm 4 mps 740 mmHg 64%
17:00 +11°C° 0.1 mm 4 mps 741 mmHg 66%
18:00 +10°C° 0 mm 3 mps 741 mmHg 71%
19:00 +9°C° 0 mm 2 mps 741 mmHg 76%
20:00 +9°C° 0 mm 1 mps 741 mmHg 81%
21:00 +8°C° 0.5 mm 1 mps 741 mmHg 84%
22:00 +7°C° 0.5 mm 2 mps 741 mmHg 87%
23:00 +6°C° 0.5 mm 2 mps 741 mmHg 91%

23 April, Friday

Time Temperature Precipitation Wind Pressure Humidity
00:00 +6°C° 1.5 mm 2 mps 741 mmHg 90%
01:00 +5°C° 1.5 mm 2 mps 741 mmHg 90%
02:00 +5°C° 1.5 mm 2 mps 741 mmHg 89%
03:00 +4°C° 0 mm 2 mps 741 mmHg 89%
04:00 +4°C° 0 mm 2 mps 741 mmHg 88%
05:00 +4°C° 0 mm 2 mps 741 mmHg 88%
06:00 +4°C° 0 mm 2 mps 741 mmHg 81%
07:00 +5°C° 0 mm 2 mps 741 mmHg 75%
08:00 +5°C° 0 mm 3 mps 742 mmHg 68%
09:00 +5°C° 0 mm 3 mps 742 mmHg 64%
10:00 +6°C° 0 mm 4 mps 742 mmHg 61%
11:00 +6°C° 0 mm 4 mps 742 mmHg 57%
12:00 +6°C° 0.1 mm 5 mps 741 mmHg 58%
13:00 +6°C° 0.1 mm 5 mps 741 mmHg 58%
14:00 +7°C° 0.1 mm 6 mps 741 mmHg 59%
15:00 +7°C° 0.2 mm 5 mps 741 mmHg 58%
16:00 +7°C° 0.2 mm 5 mps 741 mmHg 57%
17:00 +6°C° 0.2 mm 5 mps 741 mmHg 57%
18:00 +5°C° 0 mm 5 mps 741 mmHg 64%
19:00 +4°C° 0 mm 4 mps 741 mmHg 72%
20:00 +3°C° 0 mm 4 mps 741 mmHg 79%
21:00 +1°C° 0 mm 4 mps 741 mmHg 83%
22:00 +1°C° 0 mm 4 mps 741 mmHg 86%
23:00 +1°C° 0 mm 4 mps 741 mmHg 89%

24 April, Saturday

Time Temperature Precipitation Wind Pressure Humidity
00:00 0°C° 0.2 mm 5 mps 741 mmHg 91%
01:00 0°C° 0.2 mm 5 mps 741 mmHg 94%
02:00 -1°C° 0.2 mm 5 mps 741 mmHg 96%
03:00 -1°C° 0.5 mm 5 mps 741 mmHg 94%
04:00 -2°C° 0.5 mm 5 mps 742 mmHg 93%
05:00 -3°C° 0.5 mm 6 mps 742 mmHg 92%
06:00 -2°C° 0 mm 6 mps 742 mmHg 85%
07:00 -2°C° 0 mm 6 mps 743 mmHg 79%
08:00 0°C° 0 mm 5 mps 743 mmHg 73%
09:00 +1°C° 0 mm 6 mps 743 mmHg 66%
10:00 +2°C° 0 mm 6 mps 743 mmHg 58%
11:00 +3°C° 0 mm 6 mps 743 mmHg 51%
12:00 +5°C° 0 mm 5 mps 743 mmHg 47%
13:00 +6°C° 0 mm 5 mps 743 mmHg 44%
14:00 +6°C° 0 mm 5 mps 743 mmHg 40%
15:00 +6°C° 0.1 mm 5 mps 743 mmHg 49%
16:00 +5°C° 0.1 mm 5 mps 742 mmHg 57%
17:00 +3°C° 0.1 mm 5 mps 742 mmHg 66%
18:00 +2°C° 0.3 mm 5 mps 742 mmHg 75%
19:00 +1°C° 0.3 mm 5 mps 741 mmHg 85%
20:00 0°C° 0.3 mm 4 mps 740 mmHg 94%
21:00 0°C° 0.6 mm 5 mps 740 mmHg 94%
22:00 0°C° 0.6 mm 5 mps 740 mmHg 94%
23:00 -1°C° 0.6 mm 6 mps 740 mmHg 95%

25 April, Sunday

Time Temperature Precipitation Wind Pressure Humidity
00:00 -1°C° 0.2 mm 6 mps 740 mmHg 95%
01:00 -2°C° 0.2 mm 6 mps 740 mmHg 95%
02:00 -3°C° 0.2 mm 6 mps 740 mmHg 95%
03:00 -3°C° 0.2 mm 6 mps 740 mmHg 93%
04:00 -3°C° 0.2 mm 6 mps 741 mmHg 91%
05:00 -4°C° 0.2 mm 6 mps 741 mmHg 89%
06:00 -2°C° 0 mm 5 mps 741 mmHg 88%
07:00 -2°C° 0 mm 5 mps 741 mmHg 87%
08:00 -2°C° 0 mm 4 mps 741 mmHg 87%
09:00 -1°C° 0.2 mm 4 mps 741 mmHg 82%
10:00 0°C° 0.2 mm 4 mps 741 mmHg 78%
11:00 +1°C° 0.2 mm 4 mps 742 mmHg 73%
12:00 +1°C° 0.2 mm 5 mps 742 mmHg 70%
13:00 +2°C° 0.2 mm 5 mps 742 mmHg 67%
14:00 +2°C° 0.2 mm 6 mps 742 mmHg 65%
15:00 +2°C° 0 mm 6 mps 743 mmHg 65%
16:00 +2°C° 0 mm 5 mps 743 mmHg 65%
17:00 +3°C° 0 mm 5 mps 743 mmHg 65%
18:00 +2°C° 0 mm 5 mps 743 mmHg 72%
19:00 +1°C° 0 mm 5 mps 743 mmHg 79%
20:00 0°C° 0 mm 4 mps 743 mmHg 86%
21:00 -1°C° 0 mm 4 mps 744 mmHg 86%
22:00 -2°C° 0 mm 5 mps 744 mmHg 86%
23:00 -2°C° 0 mm 5 mps 744 mmHg 87%
Show more